This demonstration page uses our WeatherBlox Daily Observations layout. Learn more.

Left ArrowRight Arrow

39.08367, -84.50855

Hourly Observations for November 5, 2022

Temp ( °F °C ) Dew Point ( °F °C ) Humidity (%) Winds ( mph kmh ) Pressure ( in mb ) Visibility ( mi km ) Precip ( " mm )
12:53 am 00:53 Clear 60 15.6 46 7.8 60 60 SSW 3 6 29.98 1015 10 16 0.00 0.00
1:53 am 01:53 Clear 56 13.3 48 8.9 75 75 W 3 6 29.98 1015 8 13 0.00 0.00
2:53 am 02:53 Clear 55 12.8 48 8.9 77 77 W 3 6 29.97 1015 10 16 0.00 0.00
3:53 am 03:53 Clear 57 13.9 48 8.9 72 72 Calm 29.96 1015 10 16 0.00 0.00
4:53 am 04:53 Clear 56 13.3 49 9.4 77 77 SSW 5 7 29.93 1014 10 16 0.00 0.00
5:53 am 05:53 Clear 61 16.1 50 10 67 67 S 12 19 29.91 1013 10 16 0.00 0.00
6:53 am 06:53 Clear 62 16.7 50 10 65 65 S 9 15 29.90 1013 10 16 0.00 0.00
7:53 am 07:53 Clear 62 16.7 51 10.6 67 67 S 13 20 29.89 1012 10 16 0.00 0.00
8:53 am 08:53 Sunny 62 16.7 52 11.1 70 70 SSW 13 20 29.92 1013 10 16 0.00 0.00
9:53 am 09:53 Partly Cloudy 65 18.3 54 12.2 68 68 S 7 11 29.92 1013 10 16 0.00 0.00
10:53 am 10:53 Mostly Sunny 70 21.1 56 13.3 61 61 S 13 20 29.90 1012 10 16 0.00 0.00
11:53 am 11:53 Sunny 69 20.6 56 13.3 63 63 S 13 20 29.89 1012 10 16 0.00 0.00
12:53 pm 12:53 Cloudy with Light Rain 74 23.3 55 12.8 52 52 SSW 24 39 29.85 1011 10 16 0.01 0.13
1:53 pm 13:53 Mostly Cloudy with Light Rain 76 24.4 55 12.8 48 48 S 31 50 29.80 1009 10 16 0.01 0.13
2:53 pm 14:53 Cloudy with Light Rain 75 23.9 53 11.7 46 46 S 23 37 29.73 1007 10 16 0.01 0.13
3:53 pm 15:53 Mostly Cloudy with Light Rain 76 24.4 52 11.1 43 43 S 24 39 29.73 1007 10 16 0.01 0.13
4:53 pm 16:53 Partly Cloudy with Light Rain 75 23.9 53 11.7 46 46 S 20 31 29.73 1007 10 16 0.01 0.13
5:53 pm 17:53 Mostly Cloudy with Light Rain 74 23.3 54 12.2 50 50 SSW 14 22 29.74 1007 10 16 0.01 0.13
6:53 pm 18:53 Cloudy 74 23.3 54 12.2 50 50 SW 16 26 29.77 1008 10 16 0.01 0.13
7:53 pm 19:53 Mostly Cloudy 73 22.8 55 12.8 53 53 SW 18 30 29.78 1009 10 16 0.00 0.00
8:53 pm 20:53 Mostly Cloudy with Light Rain 70 21.1 57 13.9 63 63 SW 14 22 29.81 1010 10 16 0.01 0.13
9:53 pm 21:53 Mostly Cloudy with Light Rain 68 20 57 13.9 68 68 SW 14 22 29.83 1010 10 16 0.01 0.13
10:53 pm 22:53 Partly Cloudy 67 19.4 57 13.9 71 71 SW 14 22 29.86 1011 10 16 0.01 0.13
11:53 pm 23:53 Mostly Cloudy 66 18.9 57 13.9 73 73 SW 9 15 29.88 1012 10 16 0.00 0.00

Powered by AerisWeather